Location: Betra
(48.4113°N, 8.6634°E)
Time: 20:08:40
(UTC+00:00)

Cosmos 2333 Rocket - Pass Details

Date: 23 May 2024
Orbit: 838 x 863 km, 70.8° (Epoch: 23 June)

Event Time Altitude Azimuth Distance (km) Brightness Sun altitude
Rises 02:30:33 0° 327° (NNW) 3,426 5.5 -9.1°
Reaches altitude 10° 02:33:05 10° 321° (NW) 2,490 4.7 -8.9°
Maximum altitude 02:38:30 45° 251° (WSW) 1,152 2.6 -8.2°
Drops below altitude 10° 02:43:54 10° 180° (S) 2,488 4.2 -7.6°
Sets 02:46:27 0° 174° (S) 3,423 5.0 -7.3°
